Wind_Speed
4 11 13 8 20 15 14 10 10 13 16 20 21 14 15 14 5 3 3 5 7 8 7 10 10 11 12 10 5 8 8 8 9 6 3 1 2 2 1 2 2 3 2 4
6 13 15 9 22 22 14 7 7 12 14 21 14 16 12 17 11 5 1 2 6 5 8 7 8 11 10 10 9 9 9 7 6 4 2 1 3 3 6 8 3 6 8 4
9 13 15 12 18 18 11 1 12 15 18 21 18 14 4 10 11 21 2 2 5 4 7 8 7 8 9 8 9 9 6 4 4 4 3 0 2 3 7 5 10 8 6 5
10 9 15 20 10 11 13 9 7 4 7 12 11 8 7 12 14 22 10 5 6 6 9 8 6 5 6 6 8 8 7 5 4 5 4 0 3 5 4 6 4 5 5 6
11 7 6 1 3 6 16 13 10 4 11 10 4 2 3 12 25 23 13 6 10 9 8 9 5 3 4 4 4 5 5 4 4 6 4 1 2 4 5 2 4 5 6 3
10 5 4 6 4 3 7 9 5 10 6 6 4 6 3 16 25 20 15 12 6 4 6 8 8 2 1 2 2 1 2 2 2 3 3 1 3 2 3 4 5 4 4 4
16 14 11 9 6 4 4 8 13 6 15 6 9 6 6 12 18 18 17 15 6 2 4 4 5 4 3 3 4 3 3 2 2 3 1 1 3 1 3 4 5 4 1 4
13 12 13 11 6 1 3 8 16 12 7 5 5 4 6 7 8 12 12 13 12 2 2 4 2 4 5 6 6 4 4 5 4 3 3 4 5 4 3 2 1 4 2 1
15 15 15 10 9 8 4 4 10 10 3 3 6 4 1 3 4 11 11 10 10 8 1 3 3 3 5 7 7 5 5 4 4 2 1 3 5 6 5 5 2 3 4 5
10 17 16 16 14 6 8 7 12 9 10 6 3 9 7 11 19 11 8 13 9 11 7 5 1 2 3 5 7 5 4 3 3 1 1 3 2 3 4 4 1 3 6 7
11 15 20 19 9 10 6 6 8 19 18 15 11 9 15 17 7 2 8 12 9 5 6 5 3 3 3 2 5 9 7 6 6 4 6 5 4 4 3 5 3 8 10 12
17 21 18 21 14 14 11 8 4 10 20 19 16 17 17 17 18 12 7 14 17 10 2 2 2 0 4 3 2 3 3 3 6 7 8 7 6 6 4 6 6 7 12 15
25 23 22 17 28 22 17 14 11 8 15 22 14 18 21 24 16 4 2 8 17 15 9 5 2 3 1 1 1 1 1 2 2 4 5 6 6 4 3 6 7 8 14 14
28 27 26 18 17 35 28 22 16 18 15 20 20 19 22 18 14 11 13 13 18 18 10 8 9 9 9 5 3 4 4 4 5 5 6 6 4 2 4 7 9 12 15 16
35 32 30 23 25 31 35 30 21 20 27 25 22 25 21 16 16 18 19 18 19 18 17 12 11 12 14 14 11 8 10 9 8 8 8 8 5 5 6 10 12 12 16 19
34 32 23 21 31 35 32 28 30 23 22 31 21 21 22 15 16 18 24 27 20 19 22 22 20 15 14 13 13 9 13 16 15 13 13 12 10 10 10 13 14 13 18 20
33 27 25 19 31 39 36 34 29 32 24 21 20 17 17 20 27 27 22 19 21 23 22 21 20 18 17 17 15 12 9 14 18 19 18 16 15 14 12 15 18 19 18 23
30 29 30 26 21 34 43 40 36 34 32 27 21 19 23 31 33 33 25 26 22 26 23 21 18 18 20 20 17 16 14 16 16 18 20 21 21 18 18 20 23 25 24 23
29 31 33 35 31 29 32 43 39 36 31 32 32 31 28 36 33 41 29 27 24 27 28 25 22 21 21 24 25 24 22 22 22 20 20 20 24 25 25 26 30 31 28 27
28 32 34 36 35 37 30 32 40 39 37 35 30 42 33 38 36 39 41 34 34 35 33 32 34 33 32 29 27 26 28 29 26 25 24 22 23 26 28 31 32 33 31 26
23 23 29 31 30 32 24 26 36 39 43 40 37 35 40 36 40 42 43 41 36 34 31 26 25 25 26 28 32 32 32 33 31 30 31 30 28 27 26 29 31 31 30 31
17 21 28 30 31 27 26 24 27 38 42 43 42 46 45 43 48 43 49 47 41 32 27 29 22 17 27 28 28 33 36 39 39 38 40 40 38 34 34 35 35 33 33 32
18 20 23 27 26 28 27 29 28 37 38 37 43 48 52 54 53 47 43 36 26 37 32 16 16 19 20 20 25 32 37 40 41 43 45 45 42 41 38 36 35 33 34 34
16 18 18 21 19 12 16 26 30 31 35 38 36 38 49 48 41 48 57 51 43 30 26 17 19 17 20 24 28 31 31 33 35 40 43 43 44 40 40 40 37 35 37 38
19 21 19 18 18 20 20 20 17 9 17 24 32 30 34 34 34 34 37 35 37 33 18 23 25 24 29 35 33 32 33 34 34 34 35 38 40 42 43 44 43 43 44 44
21 22 21 17 20 16 9 17 24 12 10 21 25 11 9 13 25 26 20 26 31 24 25 26 23 24 32 31 31 30 32 34 34 33 34 33 34 36 38 40 40 40 39 37
Wind_Direction
202 182 172 150 133 98 86 31 27 33 19 359 357 19 45 60 82 71 108 97 87 88 109 125 129 118 123 136 149 137 145 140 132 133 119 104 69 95 211 342 336 260 183 107
178 195 197 172 129 118 100 17 19 19 357 343 336 327 46 65 78 50 222 133 88 72 82 95 126 122 124 134 157 144 142 145 149 160 169 138 78 351 349 13 1 280 226 138
191 222 215 211 149 143 128 21 359 334 329 323 298 328 4 69 65 35 185 194 116 95 90 101 111 121 130 142 159 148 153 171 201 171 183 170 17 1 19 32 14 326 147 97
216 234 237 251 155 170 146 176 224 257 281 253 278 51 68 72 51 18 48 146 183 112 103 117 119 122 137 177 180 161 161 170 204 219 236 243 34 40 53 48 39 57 108 94
230 241 256 306 129 161 180 183 204 166 172 241 287 321 65 61 38 28 43 79 177 151 122 118 137 134 124 140 189 175 170 187 238 262 255 299 74 47 38 38 81 61 63 68
214 194 151 157 162 172 168 195 186 118 105 154 28 318 274 51 51 41 47 60 132 130 127 123 117 129 129 109 271 263 241 228 243 275 288 300 111 89 78 101 102 84 87 98
217 219 209 196 100 296 221 198 196 134 139 38 355 274 313 40 62 33 37 46 58 100 151 155 155 185 209 247 258 279 259 184 115 85 351 88 141 165 102 103 122 103 155 185
216 220 237 245 215 88 302 231 225 198 205 25 346 259 258 9 41 347 7 28 42 67 157 179 174 155 211 239 237 202 173 143 105 79 43 356 11 45 97 124 139 151 238 309
219 198 225 230 236 230 216 321 237 216 166 247 250 203 63 245 289 314 333 9 34 46 150 155 193 134 194 241 250 199 175 163 152 141 36 345 8 26 77 124 173 174 191 240
224 188 195 212 221 267 308 292 251 208 204 254 196 308 269 303 308 266 348 21 40 51 69 77 106 172 211 214 246 252 210 215 219 199 243 310 337 13 32 81 252 255 225 245
253 208 195 200 211 183 238 343 307 230 226 246 253 295 301 295 256 168 73 359 18 59 94 85 29 17 108 154 239 252 248 238 237 240 254 240 249 261 295 321 305 298 308 297
256 266 226 206 202 219 214 209 232 275 227 241 260 267 296 295 306 163 85 330 345 356 39 168 271 49 45 89 141 227 245 259 249 241 235 234 221 245 278 310 344 333 315 298
234 254 259 223 214 222 232 221 219 201 222 214 240 257 272 287 300 318 165 298 326 329 325 325 241 219 230 12 104 318 224 205 188 210 205 208 213 233 292 317 330 315 312 328
250 244 249 252 229 220 223 223 239 222 225 247 231 246 262 278 279 270 255 280 309 307 291 289 285 270 262 259 237 215 222 214 205 216 196 199 217 261 300 306 301 313 313 323
257 260 258 251 219 216 218 220 226 234 231 242 240 239 255 274 259 245 264 282 299 285 280 290 281 277 278 273 264 213 197 199 209 226 239 240 251 292 302 294 296 303 308 323
277 281 281 253 220 215 227 226 225 226 235 238 250 247 241 247 254 252 261 273 279 268 284 291 286 279 276 274 276 254 206 212 223 232 242 255 265 282 291 294 295 297 312 323
267 279 278 268 238 221 229 228 227 229 225 224 238 227 213 232 240 262 258 263 255 246 256 267 285 277 281 286 289 289 263 230 228 236 244 251 262 273 280 284 286 291 305 317
256 265 268 266 249 234 233 234 228 229 227 221 228 227 220 230 237 243 249 244 233 241 241 251 253 269 279 279 277 279 275 267 262 254 251 251 253 258 268 273 276 287 298 304
254 259 263 263 258 252 241 239 241 234 232 231 232 231 236 239 241 252 251 246 251 221 239 243 254 267 263 266 265 265 265 267 274 270 266 261 255 254 259 262 275 285 291 293
261 261 260 266 266 266 269 242 237 240 235 234 234 236 223 229 242 241 247 242 239 231 222 238 268 264 260 264 265 263 266 270 268 266 260 256 255 255 256 258 269 278 280 287
282 279 274 268 261 262 261 241 238 240 237 238 240 240 237 233 238 240 245 242 240 233 242 240 229 238 242 248 253 252 251 252 255 256 254 251 249 253 258 264 267 271 277 280
280 277 276 273 261 259 254 258 249 232 230 238 239 235 242 248 240 237 239 235 227 227 220 230 213 238 254 247 253 258 259 257 255 256 259 257 255 255 259 264 266 270 273 277
284 275 269 265 267 264 263 249 255 253 252 243 238 240 240 242 252 266 254 245 255 270 232 220 227 254 258 260 260 259 257 256 258 256 254 253 254 259 262 265 266 271 273 276
295 285 277 268 265 259 284 253 251 256 246 244 244 248 246 256 255 259 263 276 259 278 270 264 266 253 258 266 269 264 261 262 257 255 255 256 259 261 262 262 263 269 271 278
296 288 293 286 282 284 282 260 233 282 242 236 248 265 246 256 247 252 254 258 266 287 288 281 277 272 265 265 261 260 259 262 261 258 261 260 259 259 261 264 269 270 273 277
297 295 294 293 298 279 286 265 239 237 260 253 253 255 196 219 231 243 258 264 266 276 276 280 275 264 265 263 263 263 264 261 255 253 253 257 263 264 266 267 268 270 273 275
Height
5920 5921 5922 5924 5923 5923 5924 5924 5924 5924 5922 5922 5921 5922 5921 5918 5918 5917 5917 5918 5916 5915 5916 5915 5914 5916 5917 5918 5920 5921 5922 5922 5922 5923 5924 5924 5924 5924 5925 5926 5926 5925 5922 5920
5920 5920 5920 5922 5920 5920 5923 5925 5923 5920 5920 5922 5922 5924 5921 5919 5918 5918 5918 5919 5918 5917 5916 5916 5915 5916 5918 5919 5920 5921 5921 5923 5922 5923 5923 5924 5923 5923 5925 5927 5928 5924 5922 5921
5917 5918 5919 5920 5919 5919 5920 5925 5920 5921 5919 5919 5921 5923 5921 5920 5920 5920 5918 5917 5919 5918 5917 5917 5917 5917 5918 5920 5923 5923 5922 5923 5923 5923 5923 5924 5925 5925 5926 5926 5925 5923 5921 5925
5917 5918 5918 5917 5916 5918 5921 5923 5922 5922 5923 5921 5921 5921 5920 5919 5919 5919 5915 5914 5918 5918 5918 5918 5918 5919 5920 5921 5922 5920 5921 5922 5923 5923 5923 5925 5925 5925 5925 5924 5924 5927 5926 5924
5914 5917 5918 5916 5916 5918 5920 5920 5920 5920 5921 5921 5920 5919 5918 5917 5917 5916 5914 5913 5916 5917 5918 5919 5919 5921 5922 5922 5923 5921 5921 5922 5922 5923 5923 5925 5926 5925 5925 5925 5926 5926 5927 5926
5912 5914 5914 5914 5914 5916 5918 5920 5920 5922 5921 5920 5920 5920 5919 5916 5914 5918 5918 5914 5916 5916 5917 5919 5921 5920 5921 5922 5923 5923 5922 5922 5922 5922 5922 5924 5926 5927 5926 5926 5927 5927 5927 5926
5908 5910 5910 5910 5912 5914 5916 5917 5918 5922 5920 5920 5918 5917 5918 5917 5915 5916 5917 5916 5917 5918 5918 5919 5921 5921 5921 5921 5923 5923 5923 5923 5921 5920 5921 5923 5926 5927 5927 5927 5927 5927 5925 5926
5906 5910 5909 5909 5911 5912 5913 5915 5916 5918 5918 5916 5915 5915 5915 5914 5915 5916 5917 5918 5918 5917 5918 5920 5921 5923 5922 5922 5923 5923 5923 5923 5922 5921 5921 5922 5923 5926 5927 5926 5925 5926 5925 5923
5902 5907 5906 5906 5907 5909 5911 5912 5913 5914 5914 5913 5913 5913 5911 5911 5913 5916 5917 5918 5917 5918 5918 5919 5922 5923 5923 5922 5922 5924 5923 5923 5922 5921 5921 5922 5923 5924 5927 5927 5925 5924 5923 5921
5897 5902 5902 5903 5904 5906 5907 5910 5911 5913 5912 5911 5912 5911 5910 5913 5914 5915 5916 5917 5917 5918 5919 5919 5921 5924 5924 5922 5921 5922 5923 5923 5923 5922 5923 5924 5924 5923 5924 5924 5922 5920 5919 5918
5893 5896 5900 5900 5902 5903 5905 5907 5906 5908 5909 5909 5910 5909 5908 5911 5908 5914 5913 5917 5919 5919 5920 5922 5922 5923 5923 5922 5921 5921 5921 5922 5923 5922 5922 5923 5924 5923 5922 5921 5921 5920 5919 5916
5889 5890 5895 5898 5900 5898 5899 5901 5901 5903 5906 5906 5907 5908 5908 5907 5909 5908 5911 5914 5915 5917 5919 5921 5923 5922 5922 5922 5922 5921 5920 5921 5922 5921 5922 5922 5922 5922 5921 5921 5921 5920 5917 5914
5884 5885 5887 5892 5896 5896 5896 5894 5896 5896 5900 5902 5903 5903 5901 5900 5900 5901 5909 5913 5912 5914 5915 5917 5920 5922 5923 5922 5921 5920 5919 5920 5920 5921 5921 5921 5920 5919 5920 5919 5919 5917 5915 5916
5877 5879 5881 5886 5887 5889 5887 5890 5888 5891 5893 5896 5898 5898 5898 5900 5902 5904 5908 5909 5911 5912 5913 5914 5915 5918 5920 5922 5922 5920 5919 5919 5919 5920 5920 5920 5920 5920 5920 5918 5916 5915 5913 5912
5873 5875 5875 5877 5879 5880 5882 5882 5884 5884 5887 5890 5893 5894 5896 5897 5899 5902 5904 5906 5907 5908 5910 5911 5913 5914 5915 5917 5920 5920 5919 5919 5919 5918 5918 5918 5919 5918 5917 5913 5912 5912 5910 5908
5865 5866 5871 5872 5872 5874 5875 5875 5878 5879 5880 5884 5887 5891 5895 5898 5898 5901 5903 5904 5904 5905 5904 5906 5909 5910 5911 5912 5913 5916 5917 5917 5917 5916 5916 5917 5917 5917 5914 5910 5909 5908 5906 5904
5862 5862 5863 5867 5867 5868 5870 5871 5873 5873 5876 5877 5881 5883 5887 5893 5895 5895 5897 5898 5899 5901 5901 5902 5903 5906 5907 5907 5908 5909 5911 5913 5913 5913 5913 5914 5913 5913 5911 5908 5905 5904 5904 5901
5858 5856 5855 5857 5861 5864 5864 5863 5865 5868 5870 5874 5876 5878 5881 5882 5882 5884 5887 5889 5893 5895 5897 5899 5900 5902 5903 5904 5904 5905 5906 5907 5908 5908 5909 5909 5908 5908 5906 5903 5900 5899 5898 5898
5847 5848 5847 5847 5850 5853 5855 5858 5859 5863 5866 5868 5871 5872 5873 5875 5876 5879 5879 5882 5885 5888 5889 5891 5893 5895 5898 5899 5899 5900 5900 5901 5901 5903 5903 5903 5902 5901 5900 5898 5895 5893 5894 5892
5841 5841 5841 5839 5840 5841 5847 5848 5852 5854 5858 5858 5863 5862 5867 5868 5868 5871 5870 5873 5874 5872 5880 5884 5886 5887 5889 5891 5893 5894 5893 5893 5895 5895 5895 5895 5896 5895 5894 5892 5891 5888 5886 5887
5834 5833 5831 5831 5831 5832 5836 5838 5840 5843 5848 5851 5854 5856 5855 5857 5858 5857 5859 5860 5865 5869 5870 5871 5876 5879 5880 5881 5883 5884 5885 5885 5885 5886 5886 5886 5887 5886 5885 5884 5883 5882 5879 5877
5828 5826 5824 5824 5824 5825 5827 5828 5831 5832 5836 5841 5843 5846 5847 5848 5847 5847 5845 5848 5853 5858 5860 5863 5867 5871 5875 5873 5873 5874 5875 5876 5877 5878 5876 5875 5876 5876 5876 5875 5874 5875 5874 5871
5821 5820 5817 5816 5816 5815 5817 5818 5821 5823 5825 5829 5832 5836 5837 5836 5839 5836 5840 5843 5846 5852 5852 5853 5854 5861 5862 5862 5864 5864 5865 5865 5865 5865 5865 5864 5866 5867 5867 5866 5866 5865 5864 5863
5814 5811 5809 5808 5809 5808 5810 5810 5811 5814 5815 5818 5822 5826 5827 5829 5834 5837 5838 5838 5843 5848 5844 5841 5846 5849 5851 5853 5855 5855 5854 5854 5854 5854 5854 5854 5855 5856 5857 5857 5857 5857 5855 5854
5808 5805 5803 5803 5802 5801 5803 5801 5803 5805 5807 5810 5813 5818 5822 5822 5823 5827 5830 5830 5833 5837 5834 5833 5837 5840 5842 5843 5843 5844 5843 5844 5844 5845 5843 5844 5844 5844 5845 5846 5846 5847 5846 5845
5801 5799 5798 5798 5795 5794 5796 5795 5798 5800 5804 5806 5810 5813 5814 5815 5818 5819 5822 5824 5823 5824 5825 5826 5829 5830 5829 5829 5829 5830 5831 5833 5833 5833 5834 5834 5833 5834 5834 5835 5835 5835 5835 5835